Location: Kellogg
(38.0159°N, 90.0546°W)
Time: 07:42:09
(UTC+00:00)

S-56A Canister/Altair - Pass Details

Date: 15 September 2024
Orbit: 636 x 2487 km, 38.9° (Epoch: 09 October)

Event Time Altitude Azimuth Distance (km) Brightness Sun altitude
Rises 23:16:11 0° 223° (SW) 2,987 11.4 9.2°
Reaches altitude 10° 23:18:26 10° 214° (SW) 2,164 10.5 8.8°
Maximum altitude 23:22:57 37° 147° (SSE) 1,263 8.5 7.9°
Drops below altitude 10° 23:28:58 10° 82° (E) 2,899 9.9 6.7°
Sets 23:32:26 0° 75° (ENE) 4,160 10.6 6.0°
